Temperature
18 18 17 17 16 16 15 14 13 13 13 13 13 13 13 13 13 13 13 13 13 13 13 13 13 13 12 12 13 13 13 13 13 13 14 14 14 14 15 15 15 15 15 15
18 18 18 17 17 16 16 15 14 14 14 14 14 14 14 14 14 14 14 14 14 14 14 14 13 13 13 12 12 12 12 12 13 13 13 13 14 14 14 14 15 15 15 15
20 19 19 18 17 17 16 16 16 15 15 15 15 15 15 15 15 15 15 15 15 15 14 14 14 13 13 13 12 12 12 12 12 12 12 12 13 13 13 13 14 14 14 14
21 20 18 17 18 17 17 17 16 16 16 16 16 16 16 15 15 15 15 15 15 15 15 15 14 14 13 13 12 12 12 12 12 12 12 12 12 12 12 12 13 13 13 13
21 20 18 17 17 17 17 17 17 17 17 17 17 16 16 16 15 15 15 15 15 15 15 15 15 14 14 13 12 12 12 12 12 12 12 12 12 12 12 12 12 12 12 12
20 20 19 18 19 18 17 17 18 18 17 17 17 16 16 16 15 15 15 15 15 15 15 15 15 14 14 13 12 12 12 11 12 12 12 12 11 11 11 11 11 11 11 11
20 21 19 18 18 17 17 17 17 17 17 17 16 16 16 16 15 15 15 15 15 15 15 15 15 14 14 13 12 12 12 12 12 12 11 12 11 11 11 11 11 11 11 11
21 20 18 18 17 18 18 18 17 17 16 16 16 16 16 16 15 15 15 15 15 15 15 15 15 14 14 13 13 12 12 12 12 12 11 11 11 11 11 11 11 11 10 10
21 18 18 17 18 18 18 18 17 16 16 16 16 16 16 16 15 15 15 15 15 15 15 15 15 14 14 13 13 13 13 12 12 12 11 11 11 11 11 11 11 10 10 10
20 18 17 17 17 16 17 17 16 16 16 16 16 16 15 16 15 15 15 15 15 15 15 15 15 15 14 14 14 14 13 13 12 12 11 11 11 11 11 11 11 10 10 10
20 19 18 17 17 16 16 16 16 15 15 15 15 15 15 15 15 15 15 15 15 15 15 15 15 15 15 14 14 14 14 13 12 12 11 11 11 11 11 11 10 10 10 10
20 20 19 17 17 16 16 16 16 16 15 15 15 15 15 15 15 15 15 15 15 15 15 16 15 15 15 14 14 14 13 13 12 12 11 11 11 11 11 11 10 10 10 10
20 20 19 18 17 16 16 16 16 15 15 15 15 15 15 15 15 15 15 15 15 15 15 15 15 15 15 14 14 14 13 13 12 12 11 11 11 11 11 10 10 10 10 10
19 19 18 17 17 16 16 16 16 15 15 15 15 14 14 15 15 15 15 15 15 15 15 15 15 15 15 14 14 13 13 13 12 12 11 11 11 11 11 10 10 10 10 9
18 18 18 17 16 16 16 16 15 15 15 15 14 14 14 14 14 14 15 15 15 15 15 15 15 15 15 14 14 13 13 12 12 12 12 11 11 11 11 11 10 10 9 9
17 17 17 17 16 16 16 16 15 16 15 15 15 14 14 14 14 14 14 15 15 15 15 15 15 15 15 14 14 14 13 13 12 12 12 12 12 11 11 11 10 10 10 9
17 17 17 16 16 16 16 16 16 16 15 15 15 14 14 14 14 14 14 14 14 14 14 15 15 15 15 14 14 14 13 13 12 12 12 12 12 11 11 11 10 10 10 9
17 17 17 16 16 16 16 16 16 16 15 15 14 14 14 14 14 14 14 14 14 14 14 15 15 15 15 14 14 14 14 13 13 12 12 12 12 11 11 11 10 10 9 9
18 17 17 17 16 16 16 15 15 15 15 14 14 14 14 14 13 13 13 13 14 14 14 15 15 15 14 14 15 14 14 13 13 13 12 12 12 11 11 11 10 10 9 9
17 17 17 16 16 16 16 15 15 15 14 14 14 13 13 13 13 13 13 13 13 13 14 14 15 14 14 14 15 14 14 13 13 13 13 12 12 12 12 11 11 10 10 9
17 17 16 16 16 16 15 15 15 14 14 14 13 13 13 13 13 13 13 13 13 13 14 14 14 14 15 15 15 15 14 14 13 13 13 13 12 12 12 11 11 10 10 10
16 16 16 16 16 15 15 15 15 14 14 13 13 13 13 13 13 13 13 13 13 13 13 13 13 14 14 15 15 15 14 14 13 13 13 13 12 12 12 12 11 11 10 10
16 16 16 16 15 15 15 14 14 14 14 13 13 13 13 13 13 13 13 13 12 13 13 13 14 14 14 15 15 14 14 14 13 13 13 13 12 12 12 12 11 11 11 10
16 16 16 16 15 15 15 14 14 14 14 13 13 13 13 13 13 13 13 13 13 13 13 13 14 14 14 14 14 14 14 14 13 13 13 13 13 12 12 12 12 11 11 10
14 15 15 15 15 15 15 15 14 14 13 13 13 13 13 13 13 13 12 12 12 13 13 13 13 14 14 13 13 13 13 13 13 13 13 13 13 13 12 12 12 11 11 11
13 14 14 15 15 15 15 15 14 14 14 13 13 13 13 13 13 13 13 13 13 13 13 13 13 13 13 13 13 13 13 13 13 13 13 13 13 13 13 12 12 12 11 11
12 13 13 13 13 14 14 14 14 14 14 13 13 13 13 13 13 13 13 13 13 13 13 13 13 13 12 13 13 13 13 13 13 13 13 13 13 13 13 13 12 12 12 11
Wind_Speed
10 7 7 8 9 11 11 6 4 3 4 6 6 7 7 7 8 9 9 9 8 8 7 7 6 6 6 6 6 7 7 7 7 5 5 4 5 6 6 7 7 6 6 6
8 5 5 7 7 6 7 6 4 4 4 3 4 5 7 8 9 9 9 10 9 8 7 7 7 7 7 7 7 6 7 7 7 7 7 7 7 7 7 8 8 8 8 8
5 6 4 3 5 4 5 4 3 4 3 3 5 7 8 8 9 9 10 9 9 8 7 7 7 7 7 7 7 8 8 8 9 8 8 8 8 8 8 8 8 9 9 9
2 6 0 5 5 4 2 3 2 2 1 2 1 2 5 7 8 9 9 9 9 8 7 8 7 6 7 8 8 8 8 8 8 8 8 8 8 9 9 8 7 7 8 8
3 1 6 6 6 5 2 4 3 2 3 3 2 3 8 9 9 8 8 8 7 8 8 8 8 7 8 8 8 8 8 8 8 8 8 8 8 8 7 6 6 6 6 7
4 4 2 7 10 6 3 3 5 3 5 7 6 5 7 8 8 7 6 6 7 7 8 8 7 7 8 8 8 8 8 7 7 7 7 8 8 7 6 5 5 5 5 6
6 3 5 10 11 7 2 5 7 4 5 7 8 6 5 7 7 6 5 6 7 6 6 6 6 6 8 7 7 6 6 6 7 7 7 7 7 7 6 6 6 5 5 4
3 2 4 13 9 3 6 9 7 6 6 6 5 6 6 6 6 6 6 6 6 5 5 4 5 6 6 5 4 4 4 4 5 7 7 7 7 7 7 7 7 7 7 6
4 4 9 11 6 6 6 8 7 7 5 3 4 6 6 6 6 6 6 6 5 5 5 4 5 5 5 3 2 3 4 4 4 6 6 7 7 8 7 7 6 6 6 6
2 8 10 9 8 7 4 7 7 5 4 3 4 5 6 5 6 6 6 5 5 5 6 5 3 4 4 3 1 2 4 4 6 6 7 7 7 7 7 7 7 7 7 7
4 8 10 10 9 10 8 7 6 5 3 3 3 5 5 5 6 6 6 5 5 6 5 6 3 4 5 5 5 2 4 5 6 5 5 6 6 6 6 6 5 5 5 6
3 9 8 12 12 12 11 8 7 5 4 3 2 3 5 5 5 5 6 6 6 5 5 6 5 5 5 4 5 5 5 5 4 4 4 5 6 5 9 7 7 9 9 7
2 5 4 12 15 13 11 10 8 6 3 2 2 2 4 4 4 5 6 7 6 6 5 6 6 6 5 4 5 5 6 5 4 4 3 3 4 5 4 3 5 8 9 9
5 5 6 9 13 12 11 10 8 7 5 3 1 2 3 4 5 5 6 6 6 5 5 6 6 6 5 3 3 4 6 5 3 3 3 4 3 3 3 3 2 2 3 4
7 6 7 9 12 11 10 9 8 7 6 5 3 1 2 4 4 5 5 6 7 5 6 6 6 6 5 4 4 5 6 4 4 2 2 2 2 3 3 4 4 3 2 1
10 7 8 11 12 12 11 10 9 8 6 5 3 1 1 2 3 3 4 5 6 5 6 6 6 5 4 2 2 4 5 4 3 2 1 1 1 3 3 3 4 4 5 4
13 11 10 11 12 12 11 10 8 7 7 6 4 2 1 3 2 3 4 5 5 3 5 6 6 6 5 3 1 2 5 4 2 4 0 2 2 2 3 4 4 4 4 3
12 11 11 11 11 11 10 10 8 6 5 5 5 2 3 3 2 3 4 6 5 3 6 6 6 8 6 3 3 1 2 5 4 2 2 2 2 1 3 3 4 5 4 3
11 12 11 11 10 10 9 9 7 6 5 5 5 5 3 2 2 3 5 5 4 4 6 7 10 9 4 3 3 3 3 1 3 3 3 4 2 1 2 3 3 4 4 3
10 11 11 11 10 9 9 8 7 6 6 6 5 5 4 3 1 2 4 4 2 3 4 6 8 7 5 4 3 4 4 2 2 2 4 3 3 2 2 3 3 3 3 3
9 10 11 10 9 8 8 8 7 7 6 6 5 5 5 3 2 2 3 3 2 4 4 8 5 4 6 6 5 5 5 3 3 3 3 4 3 3 3 3 3 3 3 4
8 9 10 10 9 9 8 7 7 7 7 7 6 6 5 4 4 4 5 4 2 3 2 5 3 4 6 8 5 6 6 5 3 3 2 2 2 2 3 3 3 3 4 4
8 9 10 11 11 10 10 9 8 8 8 8 7 7 7 5 4 3 3 1 3 4 2 4 3 6 9 7 6 6 6 5 5 4 4 4 3 3 3 3 3 4 4 4
5 7 9 10 11 11 11 10 9 8 8 7 7 7 6 5 4 5 5 5 5 3 3 5 6 8 9 6 7 6 5 4 4 4 4 4 4 3 3 3 4 4 4 5
5 5 6 8 9 8 9 10 10 9 8 7 8 8 7 5 5 4 4 3 7 6 5 6 8 9 8 7 6 5 4 3 2 2 2 3 3 3 3 3 4 5 5 5
5 4 3 4 4 4 5 6 6 7 7 7 6 6 6 6 6 5 4 5 7 7 6 5 6 7 6 4 4 5 5 4 3 4 5 4 4 5 5 5 5 5 5 5
6 4 2 3 3 3 3 3 4 6 7 7 7 7 7 6 6 7 7 6 6 6 6 6 6 5 4 3 4 5 5 5 4 3 4 5 5 5 6 7 5 5 4 4
Wind_Direction
94 96 76 64 55 55 59 60 65 52 24 2 345 345 350 360 6 13 11 17 19 20 20 25 31 35 33 30 32 31 32 35 31 30 27 23 17 12 12 10 5 10 14 24
129 130 108 86 73 68 67 65 73 74 49 347 337 353 5 10 16 21 17 16 19 26 27 30 34 40 39 40 40 42 43 41 37 36 31 30 28 26 26 23 18 22 23 35
145 164 210 109 95 85 75 60 40 41 24 340 6 18 18 17 23 25 23 14 11 23 26 30 39 52 50 44 42 43 44 40 37 39 38 34 32 30 34 38 35 35 35 44
212 189 163 104 124 131 123 106 86 49 352 313 339 34 44 33 29 27 21 12 5 18 28 28 30 53 67 55 45 40 40 44 40 37 36 35 36 36 35 40 44 43 38 42
311 59 126 150 171 187 212 115 112 65 25 344 236 144 59 40 35 29 18 8 1 11 26 27 27 37 57 62 53 42 37 42 42 36 32 30 32 36 34 33 41 50 39 36
290 300 68 135 143 156 221 159 128 78 37 17 38 69 38 28 31 24 21 8 359 12 21 18 21 35 48 57 52 42 35 37 42 40 36 29 25 25 28 31 33 55 56 47
277 302 97 126 137 165 236 122 127 102 62 46 46 47 26 22 25 14 20 17 4 8 14 8 16 41 48 48 52 48 37 35 36 35 47 42 23 19 21 23 24 31 48 54
267 269 142 144 158 191 107 118 126 104 74 58 43 40 30 23 23 14 11 20 8 358 351 357 29 39 59 50 51 64 51 42 52 48 39 40 35 28 24 20 25 26 26 27
12 69 112 151 150 106 124 131 116 103 87 61 39 34 25 18 21 14 7 16 356 339 344 12 42 41 53 59 36 72 65 43 64 75 64 41 37 36 30 27 28 25 19 20
250 158 160 170 138 138 145 116 108 105 102 60 34 28 18 16 24 13 2 1 348 359 8 356 20 51 55 35 346 104 97 68 71 69 71 59 39 41 43 28 22 19 18 16
239 140 152 182 170 165 162 146 144 138 113 76 33 22 9 20 23 4 353 357 9 18 347 332 19 59 60 20 343 38 89 85 85 83 89 85 68 45 48 54 38 21 9 15
230 171 172 184 180 172 167 170 166 160 148 126 69 26 7 18 14 1 0 6 8 5 343 349 20 49 71 30 350 34 70 67 68 91 96 120 121 93 53 61 56 54 44 42
37 124 141 156 169 173 173 175 169 166 159 143 83 46 9 3 15 12 11 9 355 352 356 4 23 41 56 46 10 35 68 65 56 53 69 91 127 143 136 89 55 53 50 49
119 141 129 149 164 170 177 173 171 173 170 166 101 29 7 2 17 13 9 357 337 350 14 16 33 40 36 38 25 62 89 83 76 66 54 60 65 82 115 138 137 108 65 48
168 178 157 156 159 172 174 172 180 188 183 172 160 159 29 11 3 359 5 352 339 8 24 22 35 32 13 4 24 58 66 65 57 62 65 83 89 88 75 79 90 94 95 39
178 187 161 166 171 178 179 184 192 196 185 176 172 156 50 343 317 351 10 350 343 9 22 24 27 9 349 345 65 93 91 63 16 333 154 125 99 97 91 86 84 76 62 32
180 189 182 180 181 185 189 193 201 199 184 180 176 154 278 288 304 18 1 333 325 3 47 35 19 341 319 308 285 147 141 139 237 282 28 78 67 80 92 93 91 89 85 56
189 192 191 189 188 189 194 197 203 201 187 170 148 188 251 286 342 358 333 320 327 29 59 36 6 323 302 324 337 357 161 167 192 177 107 78 33 71 97 107 115 120 137 139
188 188 191 193 190 190 193 195 193 193 190 168 174 212 234 270 312 330 322 320 342 19 23 8 335 311 308 76 11 310 286 178 177 153 133 129 236 225 145 134 129 131 136 135
192 188 190 193 191 189 189 188 187 189 186 178 188 206 227 239 233 301 306 305 64 69 349 337 317 318 355 51 10 301 284 244 231 185 165 176 218 208 161 147 139 141 143 132
200 193 192 193 188 185 185 185 181 182 180 180 198 216 225 231 223 254 280 294 93 74 338 310 304 11 15 355 311 288 284 262 239 235 187 188 211 203 183 176 167 161 152 143
212 204 198 194 186 185 186 191 185 182 184 185 197 218 227 232 241 246 247 233 147 101 325 307 12 24 341 323 286 273 271 267 252 236 212 206 212 215 203 181 170 163 151 145
216 212 205 200 195 193 191 197 195 186 188 192 197 205 215 218 227 240 263 215 127 110 297 301 343 320 318 304 274 261 248 242 239 228 209 209 214 213 210 183 169 158 154 154
245 221 211 204 201 200 200 198 198 189 184 190 200 206 210 210 215 220 228 206 178 180 256 275 280 291 302 284 271 267 258 236 223 226 222 205 203 204 199 181 169 165 167 165
307 270 235 213 210 209 208 199 194 191 187 191 200 203 209 210 212 223 239 207 174 188 244 268 263 271 278 276 284 296 295 275 238 212 223 215 201 197 203 189 181 178 175 172
333 323 312 271 241 219 212 203 195 187 187 191 200 204 204 200 201 204 218 239 236 222 227 251 260 262 265 290 326 318 305 292 238 206 215 222 219 201 201 209 202 188 181 178
323 313 307 300 294 270 251 233 211 201 193 192 199 203 207 206 199 199 206 215 224 220 219 227 239 250 263 273 277 281 283 285 280 244 220 218 220 215 202 200 196 190 180 171
Height
1555 1556 1557 1559 1560 1559 1561 1564 1569 1570 1568 1565 1561 1558 1554 1550 1547 1543 1539 1535 1532 1529 1525 1523 1520 1518 1516 1514 1512 1510 1509 1509 1508 1508 1508 1508 1508 1508 1508 1508 1508 1509 1509 1510
1554 1554 1554 1559 1560 1561 1562 1563 1565 1565 1566 1562 1560 1558 1555 1552 1549 1546 1543 1540 1537 1534 1531 1528 1526 1524 1521 1519 1517 1515 1513 1512 1511 1510 1510 1509 1509 1508 1508 1508 1508 1508 1509 1509
1549 1550 1553 1558 1560 1561 1562 1562 1562 1564 1565 1561 1559 1558 1556 1554 1552 1549 1547 1544 1540 1538 1535 1533 1530 1528 1526 1524 1522 1520 1518 1516 1515 1513 1512 1511 1510 1510 1509 1508 1508 1508 1508 1508
1542 1549 1559 1562 1557 1559 1560 1560 1561 1561 1560 1560 1559 1559 1557 1556 1554 1552 1550 1547 1544 1541 1539 1537 1535 1532 1530 1528 1526 1524 1522 1520 1518 1517 1515 1514 1513 1512 1511 1510 1510 1509 1508 1508
1541 1546 1555 1558 1556 1557 1558 1559 1559 1559 1559 1558 1557 1558 1558 1557 1556 1554 1552 1550 1547 1545 1543 1541 1538 1536 1534 1532 1530 1528 1526 1524 1522 1521 1519 1518 1516 1515 1514 1513 1512 1511 1510 1509
1543 1545 1551 1552 1552 1556 1559 1559 1559 1559 1559 1558 1557 1559 1561 1559 1557 1555 1554 1552 1549 1548 1545 1543 1541 1539 1537 1535 1533 1531 1530 1528 1526 1524 1522 1521 1519 1518 1517 1516 1515 1514 1513 1511
1544 1543 1547 1549 1553 1557 1562 1559 1559 1560 1560 1561 1560 1562 1562 1560 1558 1556 1555 1553 1551 1549 1547 1545 1543 1541 1539 1538 1536 1535 1533 1531 1529 1527 1526 1524 1522 1520 1519 1518 1517 1517 1515 1514
1541 1543 1552 1549 1553 1554 1555 1556 1558 1560 1561 1562 1562 1562 1561 1560 1559 1557 1556 1554 1552 1550 1548 1547 1545 1543 1541 1540 1539 1537 1535 1534 1532 1530 1528 1526 1524 1522 1521 1520 1520 1518 1517 1516
1539 1547 1545 1548 1550 1552 1554 1556 1558 1560 1562 1563 1563 1562 1562 1560 1559 1558 1556 1554 1553 1551 1549 1548 1546 1544 1543 1542 1540 1539 1537 1536 1534 1532 1530 1528 1527 1525 1523 1522 1521 1520 1519 1518
1539 1542 1545 1548 1550 1553 1555 1557 1559 1561 1562 1563 1563 1563 1562 1561 1560 1558 1557 1555 1553 1552 1550 1549 1547 1545 1544 1543 1541 1540 1539 1538 1537 1535 1533 1531 1530 1528 1526 1525 1523 1522 1521 1519
1538 1539 1544 1547 1549 1552 1555 1557 1559 1561 1562 1562 1563 1563 1562 1561 1560 1558 1557 1555 1554 1552 1550 1549 1548 1546 1545 1544 1543 1542 1541 1540 1538 1537 1536 1534 1533 1531 1530 1528 1527 1526 1524 1522
1536 1534 1539 1543 1546 1550 1553 1556 1558 1560 1561 1562 1562 1562 1562 1561 1560 1559 1557 1556 1554 1553 1551 1550 1549 1548 1546 1544 1544 1543 1542 1541 1540 1539 1538 1537 1536 1535 1534 1532 1531 1529 1527 1525
1533 1534 1536 1538 1544 1548 1551 1554 1557 1559 1560 1561 1562 1562 1561 1561 1560 1559 1557 1556 1555 1554 1552 1551 1550 1548 1547 1546 1545 1544 1543 1542 1542 1541 1540 1540 1539 1537 1536 1536 1534 1532 1530 1528
1533 1535 1537 1539 1542 1547 1550 1553 1555 1557 1559 1560 1560 1560 1560 1560 1559 1558 1557 1556 1555 1554 1553 1552 1550 1549 1548 1547 1546 1545 1544 1543 1543 1542 1542 1542 1541 1540 1539 1537 1536 1535 1533 1531
1532 1535 1537 1539 1542 1546 1549 1551 1554 1556 1557 1559 1559 1559 1559 1559 1558 1558 1557 1556 1555 1554 1553 1552 1550 1549 1548 1547 1547 1546 1545 1544 1544 1543 1543 1543 1543 1542 1541 1540 1538 1537 1535 1533
1531 1534 1536 1538 1541 1544 1547 1549 1552 1554 1555 1557 1558 1558 1558 1558 1558 1557 1556 1555 1555 1554 1553 1552 1550 1549 1548 1548 1547 1546 1545 1545 1544 1544 1544 1544 1544 1543 1542 1541 1540 1538 1537 1535
1528 1531 1534 1536 1539 1542 1545 1547 1549 1551 1553 1554 1556 1556 1556 1557 1557 1556 1555 1555 1554 1554 1552 1551 1550 1549 1548 1548 1548 1547 1546 1545 1545 1545 1545 1545 1544 1544 1543 1542 1541 1540 1538 1537
1525 1529 1532 1534 1537 1540 1543 1545 1547 1549 1551 1552 1553 1554 1555 1555 1555 1554 1554 1554 1554 1553 1551 1550 1549 1548 1548 1547 1547 1547 1547 1546 1545 1545 1545 1545 1544 1544 1543 1543 1541 1540 1539 1537
1523 1526 1529 1532 1535 1537 1540 1542 1545 1546 1548 1549 1550 1551 1552 1553 1553 1552 1552 1552 1551 1551 1549 1548 1548 1547 1547 1546 1546 1546 1546 1546 1545 1545 1544 1544 1544 1544 1543 1543 1542 1541 1540 1538
1521 1523 1526 1529 1532 1535 1537 1539 1542 1544 1545 1546 1547 1549 1549 1550 1550 1550 1550 1549 1549 1548 1547 1547 1546 1545 1545 1545 1544 1544 1545 1545 1545 1545 1544 1544 1543 1543 1543 1543 1542 1541 1540 1539
1518 1521 1523 1526 1529 1531 1534 1536 1538 1540 1542 1543 1544 1545 1546 1547 1547 1547 1547 1547 1547 1545 1545 1545 1544 1543 1542 1542 1542 1542 1543 1543 1543 1543 1543 1543 1542 1542 1542 1542 1541 1540 1539 1538
1515 1518 1520 1523 1525 1528 1530 1533 1535 1536 1538 1539 1540 1542 1543 1543 1544 1544 1544 1544 1544 1543 1543 1542 1541 1540 1540 1540 1539 1540 1540 1541 1541 1541 1541 1541 1541 1541 1541 1541 1540 1540 1539 1538
1513 1515 1517 1519 1522 1524 1527 1529 1531 1532 1534 1535 1536 1537 1539 1539 1540 1541 1541 1542 1541 1540 1540 1539 1538 1538 1537 1537 1537 1537 1537 1538 1538 1539 1539 1539 1539 1539 1539 1539 1538 1538 1537 1536
1510 1512 1514 1516 1519 1521 1523 1524 1527 1528 1529 1531 1532 1533 1535 1535 1536 1537 1537 1537 1537 1537 1536 1536 1535 1535 1534 1534 1534 1534 1535 1535 1535 1536 1536 1536 1536 1536 1536 1536 1536 1535 1535 1535
1509 1509 1511 1513 1514 1516 1519 1521 1522 1524 1525 1526 1527 1529 1530 1531 1532 1533 1533 1534 1533 1533 1533 1532 1532 1532 1532 1531 1531 1531 1532 1532 1532 1532 1533 1533 1533 1533 1533 1533 1533 1533 1532 1532
1508 1508 1508 1509 1511 1513 1515 1517 1518 1519 1520 1521 1523 1524 1525 1526 1527 1528 1528 1529 1529 1529 1529 1529 1529 1528 1528 1528 1528 1527 1527 1528 1528 1528 1528 1529 1529 1529 1530 1530 1530 1530 1530 1529
1507 1506 1506 1506 1507 1508 1510 1512 1513 1514 1515 1516 1518 1519 1520 1521 1522 1522 1523 1524 1524 1524 1524 1524 1524 1525 1525 1524 1524 1523 1523 1524 1524 1524 1524 1524 1525 1525 1525 1526 1526 1526 1526 1526